Showing default

IRIDE-MS1-EAG2-13, 68450

Orbit data source: Space-Track

IRIDE-MS1-EAG2-13, 68450 is an Italian payload satellite in SSO that was launched on Mon, 30 Mar 2026 UTC via an FALCON 9 launch vehicle from the Air Force Western Test Range (AFWTR). Payload-class satellites include a variety of spacecraft equipped with specific instruments for various scientific and technological missions. These include communications satellites like Starlink; space stations such as the ISS; scientific satellites like the Hubble; Earth observation satellites from companies like Planet Labs, Umbra, and HawkEye 360; GPS; miniature CubeSats for education and research; and military/defense satellites.

Loading next visibility...
Identifier
68450, 2026-067AL
Orbit
SSO
Country
Flag of ITIT
Related business
Manufacturer
OHB-I
Mission
Operational spacecraft
Bus & Motor
EAGLET, Unknown motor
Mass
25 kg wet, 25 kg dry
Launch date (UTC)
2026-03-30 (3 months ago)
Launch vehicle
FALCON 9
Launch site
Air Force Western Test Range (AFWTR)
Object type
Payload
Rocket body
Debris
Shape & HBR
Unknown shape, 14.5 m
Radar Cross Section
Medium (>0.1 m² and <1 m²)

Expand to show TLE details & history
Last TLE update: 2 days ago

TLE from 2 days ago
0 IRIDE-MS1-EAG2-13
1 68450U 26067AL  26171.42151128  .00005411  00000-0  26266-3 0  9991
2 68450  97.4545 129.8789 0003156  53.1122 307.0401 15.18883414 12430
Epoch: 2026-06-20T10:06Z
TLE epoch observation values (Epoch: 2026-06-20T10:06:58.574Z)
Latitude
-0.00005°
Longitude
69.49848°
Altitude
510.992 km
Speed
7.609 km/s
True Right ascension
08h 39m 30s
True Declination
0° 00' 00"
Sunlit
Object was in daylight at epoch
Visualization orbit readout
Latitude
Unknown
Longitude
Unknown
Altitude
Unknown
Speed
Unknown
Apparent Right ascension
Unknown
Apparent Declination
Unknown
Sunlit
N/A
Visualization observer readout
Local Sidereal Time
10:47:53
Azimuth
Unknown
Elevation
Unknown
Doppler factor
Unknown
Orbital elements
Apogee altitude
508.356 km
Perigee altitude
504.011 km
Semi-major axis
6,884.32 km
Eccentricity
0.00032
Inclination
97.4545°
RAAN
129.8789°
Arg. of periapsis
53.1122°
True anomaly
307.01123°
Mean anomaly
307.0401°
Eccentric anomaly
307.02566°
Mean motion
3.79972 °/min
Orbital period
94.74 mins
BSTAR
0.00026266
Loading maneuver chart data...
Computing Atmospheric mass density...
Loading historical data...
Loading historical data...
Loading historical data...
Loading historical data...
Loading historical data...
Loading historical data...
Loading historical data...

Documentation

Showing up to 5 results
|